DW3169 Weather Reports


time (UTC)temp
C
wind
direction
speed
KPH
gust
KPH
rain 1hr
cm
rain 24hr
cm
rain mn
cm
humidity
%
barometer
mb
20260503192709 16 161 0.0 0.0 0.00 0.00 0.00 71 1012.8
20260503185441 15 200 0.0 0.0 0.00 0.00 0.00 78 1013.1
20260503184425 15 107 0.0 0.0 0.00 0.00 0.00 79 1013.0
20260503183409 14 355 0.0 0.0 0.00 0.00 0.00 80 1013.0
20260503182340 14 132 0.0 0.0 0.00 0.00 0.00 79 1013.1
20260503180215 15 188 0.0 0.0 0.00 0.00 0.00 78 1013.0
20260503175145 15 184 0.0 0.0 0.00 0.00 0.00 80 1012.9
20260503174146 14 131 0.0 0.0 0.00 0.00 0.00 85 1012.9
20260503173126 13 176 0.0 0.0 0.00 0.00 0.00 86 1012.9
20260503172105 13 257 0.0 0.0 0.00 0.00 0.00 86 1012.9
20260503171058 14 215 0.0 0.0 0.00 0.00 0.00 81 1013.0
20260503131258 12 264 0.0 0.0 0.00 0.00 0.00 84 1011.0
20260503130321 12 265 0.0 0.0 0.00 0.00 0.00 84 1010.9
20260503120155 12 163 0.0 0.0 0.00 0.00 0.00 84 1011.0
20260503110110 12 118 0.0 0.0 0.00 0.00 0.00 84 1011.0
20260503081426 12 185 0.0 0.0 0.00 0.00 0.00 84 1011.7
20260503080404 12 176 0.0 0.0 0.00 0.00 0.00 85 1011.8
20260503072335 12 151 0.0 0.0 0.00 0.00 0.00 85 1011.7
20260503071323 12 138 0.0 0.0 0.00 0.00 0.00 85 1011.8
20260503070345 12 126 0.0 0.0 0.00 0.00 0.00 85 1011.7
20260503060251 12 190 0.0 0.0 0.00 0.00 0.00 84 1012.0
20260503054236 12 187 0.0 0.0 0.00 0.00 0.00 84 1012.2
20260503053254 12 162 0.0 0.0 0.00 0.00 0.00 84 1012.1
20260503052258 12 186 0.0 0.0 0.00 0.00 0.00 84 1012.2
20260503051229 12 160 0.0 0.0 0.00 0.00 0.00 83 1012.2
20260503050230 12 163 0.0 0.0 0.00 0.00 0.00 84 1012.2
20260503045201 12 190 0.0 0.0 0.00 0.00 0.00 84 1012.2
20260503044154 12 241 0.0 0.0 0.00 0.00 0.00 84 1012.2
20260503043207 12 159 0.0 0.0 0.00 0.00 0.00 85 1012.0
20260503042206 12 157 0.0 0.0 0.00 0.00 0.00 84 1011.9
20260503041229 12 269 0.0 0.0 0.00 0.00 0.00 84 1011.8
20260503040234 12 177 0.0 0.0 0.00 0.00 0.00 84 1011.9
20260503035245 12 165 0.0 0.0 0.00 0.00 0.00 84 1011.9
20260503034219 12 130 0.0 0.0 0.00 0.00 0.00 85 1011.8
20260503033219 12 134 0.0 0.0 0.00 0.00 0.00 84 1011.7
20260503032210 12 166 0.0 0.0 0.00 0.00 0.00 84 1011.6
20260503031205 12 161 0.0 0.0 0.00 0.00 0.00 84 1011.4
20260503030153 12 178 0.0 0.0 0.00 0.00 0.00 84 1011.2
20260503025147 12 128 0.0 0.0 0.00 0.00 0.00 84 1011.2
20260503024133 12 74 0.0 0.0 0.00 0.00 0.00 83 1011.3
20260503023149 13 159 0.0 0.0 0.00 0.00 0.00 82 1011.2
20260503020947 13 164 0.0 0.0 0.00 0.00 0.00 81 1011.3
20260503015938 13 165 0.0 0.0 0.00 0.00 0.00 81 1011.3
20260503014944 13 152 0.0 0.0 0.00 0.00 0.00 80 1011.3
20260503013920 13 145 0.0 0.0 0.00 0.00 0.00 78 1011.5
20260503012915 13 178 0.0 0.0 0.00 0.00 0.00 76 1011.5
20260503011926 14 148 0.0 0.0 0.00 0.00 0.00 76 1011.5
20260503010857 14 165 0.0 0.0 0.00 0.00 0.00 76 1011.5
20260503005859 14 147 0.0 0.0 0.00 0.00 0.00 74 1011.5
20260503003739 15 190 0.0 0.0 0.00 0.00 0.00 74 1011.6
20260503002756 15 159 0.0 0.0 0.00 0.00 0.00 73 1011.6
20260503001754 15 170 0.0 0.0 0.00 0.00 0.00 73 1011.6
20260503000816 15 196 0.0 0.0 0.00 0.00 0.00 73 1011.7
20260502235802 15 255 0.0 0.0 0.00 0.00 0.00 72 1011.7
20260502234800 16 153 0.0 0.0 0.00 0.00 0.00 71 1011.8
20260502233806 16 158 0.0 0.0 0.00 0.00 0.00 72 1011.9
20260502232802 16 180 0.0 0.0 0.00 0.00 0.00 70 1011.9
20260502231728 16 145 0.0 0.0 0.00 0.00 0.00 71 1012.0
20260502225543 16 107 0.0 0.0 0.00 0.00 0.00 70 1012.5
20260502224539 16 277 0.0 0.0 0.00 0.00 0.00 72 1012.5
20260502223557 16 185 0.0 0.0 0.00 0.00 0.00 69 1012.6
20260502222616 16 198 0.0 0.0 0.00 0.00 0.00 68 1012.8
20260502221602 17 9 0.0 0.0 0.00 0.00 0.00 69 1013.0
20260502220602 16 183 0.0 0.0 0.00 0.00 0.00 69 1013.1
20260502215535 16 202 0.0 0.0 0.00 0.00 0.00 70 1013.2
20260502214502 16 186 0.0 0.0 0.00 0.00 0.00 73 1013.2
20260502213440 15 130 0.0 0.0 0.00 0.00 0.00 73 1013.2
20260502212418 15 166 0.0 0.0 0.00 0.00 0.00 74 1013.2
20260502211346 15 222 0.0 0.0 0.00 0.00 0.00 74 1013.3
20260502210336 15 181 0.0 0.0 0.00 0.00 0.00 74 1013.5
20260502205330 15 160 0.0 0.0 0.00 0.00 0.00 76 1013.6
20260502204323 15 254 0.0 0.0 0.00 0.00 0.00 77 1013.7
20260502203257 14 234 0.0 0.0 0.00 0.00 0.00 77 1013.8
20260502202227 14 169 0.0 0.0 0.00 0.00 0.00 78 1013.8
20260502201230 14 189 0.0 0.0 0.00 0.00 0.00 79 1013.9
20260502200251 14 163 0.0 0.0 0.00 0.00 0.00 80 1014.0
20260502194208 13 262 0.0 0.0 0.00 0.00 0.00 82 1014.0